Simultaneous Nadir Overpasses (SNOs) Predictions

Prediction of SNOs between GOES-14 and AQUA Satellite Orbit:

Table of predicted SNOs for the next 14.0 days since TLE Epoch: 1/23/2022
Index Date Time (GOES-14) GOES-14 Lat,Lon AQUA Lat,Lon Distance(km) Time Diff (sec)
1 01/23/2022 08:33:48 0.00,-104.59 0.05,-104.67 10.20 80
2 01/25/2022 08:24:16 0.00,-104.60 -0.60,-101.71 328.34 80
3 01/25/2022 20:45:38 0.00,-104.29 -0.55,-106.89 295.84 80
4 01/27/2022 20:30:46 -0.00,-104.29 0.06,-103.92 41.80 80
5 01/29/2022 20:18:34 -0.01,-104.29 0.73,-100.96 379.16 80
6 01/30/2022 08:39:49 0.01,-104.60 0.33,-106.12 173.10 80
7 02/01/2022 08:30:16 0.02,-104.60 -0.29,-103.15 164.58 80
8 02/01/2022 20:51:39 -0.01,-104.30 -0.85,-108.33 458.06 80
9 02/03/2022 20:39:26 -0.01,-104.30 -0.21,-105.36 119.98 80
10 02/05/2022 20:24:32 -0.01,-104.31 0.37,-102.38 218.58 80
